| time (UTC) | temp F | wind direction | speed MPH | gust MPH | rain 1hr in | rain 24hr in | rain mn in | humidity % | barometer mb |
| 20260503222025 | 75 | 146 | 1.0 | 5.0 | 0.00 | 0.00 | 0.00 | 32 | 1013.3 |
| 20260503221524 | 75 | 84 | 1.0 | 5.0 | 0.00 | 0.00 | 0.00 | 35 | 1013.3 |
| 20260503221033 | 77 | 167 | 2.0 | 6.0 | 0.00 | 0.00 | 0.00 | 25 | 1013.4 |
| 20260503220523 | 77 | 90 | 1.0 | 4.0 | 0.00 | 0.00 | 0.00 | 24 | 1013.5 |
| 20260503220019 | 77 | 216 | 2.0 | 4.0 | 0.00 | 0.00 | 0.00 | 27 | 1013.5 |
| 20260503215530 | 77 | 244 | 1.0 | 5.0 | 0.00 | 0.00 | 0.00 | 26 | 1013.7 |
| 20260503215019 | 77 | 221 | 2.0 | 5.0 | 0.00 | 0.00 | 0.00 | 29 | 1013.8 |
| 20260503214537 | 77 | 259 | 1.0 | 4.0 | 0.00 | 0.00 | 0.00 | 26 | 1013.8 |
| 20260503214028 | 77 | 49 | 1.0 | 3.0 | 0.00 | 0.00 | 0.00 | 27 | 1013.9 |
| 20260503213519 | 77 | 53 | 0.0 | 5.0 | 0.00 | 0.00 | 0.00 | 27 | 1014.0 |
| 20260503213034 | 77 | 24 | 3.0 | 5.0 | 0.00 | 0.00 | 0.00 | 28 | 1014.0 |
| 20260503212525 | 76 | 355 | 2.0 | 5.0 | 0.00 | 0.00 | 0.00 | 29 | 1014.0 |
| 20260503212037 | 76 | 281 | 1.0 | 6.0 | 0.00 | 0.00 | 0.00 | 30 | 1014.1 |
| 20260503211535 | 76 | 10 | 3.0 | 6.0 | 0.00 | 0.00 | 0.00 | 29 | 1014.3 |
| 20260503211022 | 76 | 104 | 0.0 | 4.0 | 0.00 | 0.00 | 0.00 | 31 | 1014.4 |
| 20260503210531 | 75 | 44 | 1.0 | 10.0 | 0.00 | 0.00 | 0.00 | 30 | 1014.5 |
| 20260503210027 | 75 | 300 | 2.0 | 10.0 | 0.00 | 0.00 | 0.00 | 30 | 1014.7 |
| 20260503205537 | 75 | 272 | 4.0 | 8.0 | 0.00 | 0.00 | 0.00 | 31 | 1014.7 |
| 20260503205026 | 75 | 342 | 4.0 | 8.0 | 0.00 | 0.00 | 0.00 | 32 | 1014.8 |
| 20260503204521 | 74 | 44 | 1.0 | 9.0 | 0.00 | 0.00 | 0.00 | 31 | 1014.8 |
| 20260503204037 | 74 | 321 | 4.0 | 9.0 | 0.00 | 0.00 | 0.00 | 31 | 1014.8 |
| 20260503203519 | 74 | 313 | 5.0 | 9.0 | 0.00 | 0.00 | 0.00 | 33 | 1014.8 |
| 20260503203054 | 74 | 26 | 3.0 | 10.0 | 0.00 | 0.00 | 0.00 | 31 | 1014.8 |
| 20260503202527 | 74 | 22 | 3.0 | 11.0 | 0.00 | 0.00 | 0.00 | 31 | 1014.8 |
| 20260503202019 | 74 | 360 | 5.0 | 11.0 | 0.00 | 0.00 | 0.00 | 32 | 1014.8 |
| 20260503201536 | 74 | 13 | 3.0 | 11.0 | 0.00 | 0.00 | 0.00 | 31 | 1014.8 |
| 20260503201027 | 74 | 340 | 6.0 | 11.0 | 0.00 | 0.00 | 0.00 | 33 | 1014.9 |
| 20260503200533 | 73 | 360 | 5.0 | 10.0 | 0.00 | 0.00 | 0.00 | 31 | 1015.0 |
| 20260503200031 | 74 | 349 | 5.0 | 10.0 | 0.00 | 0.00 | 0.00 | 31 | 1015.2 |
| 20260503195538 | 73 | 5 | 3.0 | 10.0 | 0.00 | 0.00 | 0.00 | 33 | 1015.2 |
| 20260503195027 | 73 | 9 | 5.0 | 11.0 | 0.00 | 0.00 | 0.00 | 33 | 1015.3 |
| 20260503194536 | 73 | 334 | 5.0 | 10.0 | 0.00 | 0.00 | 0.00 | 33 | 1015.3 |
| 20260503194035 | 73 | 5 | 5.0 | 9.0 | 0.00 | 0.00 | 0.00 | 32 | 1015.4 |
| 20260503193524 | 73 | 5 | 5.0 | 12.0 | 0.00 | 0.00 | 0.00 | 29 | 1015.3 |
| 20260503193019 | 73 | 53 | 4.0 | 12.0 | 0.00 | 0.00 | 0.00 | 28 | 1015.4 |
| 20260503192530 | 73 | 20 | 4.0 | 9.0 | 0.00 | 0.00 | 0.00 | 29 | 1015.5 |
| 20260503192037 | 73 | 325 | 4.0 | 10.0 | 0.00 | 0.00 | 0.00 | 30 | 1015.6 |
| 20260503191541 | 73 | 44 | 6.0 | 10.0 | 0.00 | 0.00 | 0.00 | 32 | 1015.6 |
| 20260503191027 | 72 | 314 | 1.0 | 9.0 | 0.00 | 0.00 | 0.00 | 31 | 1015.6 |
| 20260503190537 | 72 | 350 | 1.0 | 9.0 | 0.00 | 0.00 | 0.00 | 33 | 1015.8 |
| 20260503190039 | 72 | 346 | 2.0 | 6.0 | 0.00 | 0.00 | 0.00 | 33 | 1015.9 |
| 20260503185522 | 71 | 24 | 2.0 | 5.0 | 0.00 | 0.00 | 0.00 | 36 | 1016.0 |
| 20260503185031 | 69 | 81 | 0.0 | 3.0 | 0.00 | 0.00 | 0.00 | 43 | 1016.0 |
| 20260503184527 | 70 | 5 | 0.0 | 3.0 | 0.00 | 0.00 | 0.00 | 38 | 1016.1 |
| 20260503184034 | 69 | 69 | 1.0 | 3.0 | 0.00 | 0.00 | 0.00 | 48 | 1016.1 |
| 20260503183527 | 69 | 271 | 0.0 | 3.0 | 0.00 | 0.00 | 0.00 | 44 | 1016.1 |
| 20260503183022 | 68 | 272 | 1.0 | 3.0 | 0.00 | 0.00 | 0.00 | 40 | 1016.2 |
| 20260503182530 | 67 | 84 | 1.0 | 3.0 | 0.00 | 0.00 | 0.00 | 46 | 1016.2 |
| 20260503182019 | 64 | 207 | 1.0 | 3.0 | 0.00 | 0.00 | 0.00 | 53 | 1016.3 |
| 20260503181536 | 64 | 184 | 2.0 | 3.0 | 0.00 | 0.00 | 0.00 | 51 | 1016.2 |
| 20260503181027 | 63 | 163 | 1.0 | 4.0 | 0.00 | 0.00 | 0.00 | 53 | 1016.4 |
| 20260503180535 | 63 | 169 | 2.0 | 5.0 | 0.00 | 0.00 | 0.00 | 55 | 1016.4 |
| 20260503180034 | 62 | 163 | 3.0 | 5.0 | 0.00 | 0.00 | 0.00 | 53 | 1016.4 |
| 20260503175525 | 62 | 176 | 2.0 | 4.0 | 0.00 | 0.00 | 0.00 | 63 | 1016.5 |
| 20260503175034 | 62 | 180 | 2.0 | 4.0 | 0.00 | 0.00 | 0.00 | 65 | 1016.5 |
| 20260503174528 | 61 | 163 | 2.0 | 4.0 | 0.00 | 0.00 | 0.00 | 60 | 1016.5 |
| 20260503174020 | 61 | 142 | 1.0 | 5.0 | 0.00 | 0.00 | 0.00 | 62 | 1016.5 |
| 20260503173528 | 61 | 117 | 2.0 | 5.0 | 0.00 | 0.00 | 0.00 | 64 | 1016.5 |
| 20260503173022 | 60 | 171 | 2.0 | 4.0 | 0.00 | 0.00 | 0.00 | 62 | 1016.6 |
| 20260503172531 | 60 | 167 | 2.0 | 3.0 | 0.00 | 0.00 | 0.00 | 60 | 1016.6 |
| 20260503172020 | 59 | 165 | 2.0 | 4.0 | 0.00 | 0.00 | 0.00 | 65 | 1016.6 |
| 20260503171537 | 59 | 165 | 2.0 | 4.0 | 0.00 | 0.00 | 0.00 | 64 | 1016.7 |
| 20260503171024 | 59 | 152 | 0.0 | 3.0 | 0.00 | 0.00 | 0.00 | 68 | 1016.6 |
| 20260503170535 | 58 | 155 | 2.0 | 3.0 | 0.00 | 0.00 | 0.00 | 67 | 1016.8 |
| 20260503150536 | 51 | 178 | 2.0 | 3.0 | 0.00 | 0.00 | 0.00 | 84 | 1017.6 |
| 20260503131046 | 47 | 178 | 2.0 | 3.0 | 0.00 | 0.00 | 0.00 | 91 | 1017.3 |
| 20260503130529 | 46 | 223 | 0.0 | 3.0 | 0.00 | 0.00 | 0.00 | 92 | 1017.4 |
| 20260503110528 | 47 | 257 | 1.0 | 3.0 | 0.00 | 0.00 | 0.00 | 89 | 1017.5 |
| 20260503081533 | 51 | 236 | 2.0 | 4.0 | 0.00 | 0.00 | 0.00 | 82 | 1017.1 |
| 20260503081033 | 51 | 244 | 1.0 | 4.0 | 0.00 | 0.00 | 0.00 | 82 | 1017.1 |
| 20260503080538 | 51 | 252 | 2.0 | 4.0 | 0.00 | 0.00 | 0.00 | 82 | 1017.1 |
| 20260503072535 | 52 | 238 | 2.0 | 5.0 | 0.00 | 0.00 | 0.00 | 80 | 1017.1 |
| 20260503072024 | 53 | 237 | 2.0 | 5.0 | 0.00 | 0.00 | 0.00 | 77 | 1017.1 |
| 20260503071521 | 53 | 182 | 2.0 | 4.0 | 0.00 | 0.00 | 0.00 | 76 | 1017.0 |
| 20260503071030 | 53 | 186 | 2.0 | 5.0 | 0.00 | 0.00 | 0.00 | 78 | 1017.1 |
| 20260503070539 | 52 | 224 | 3.0 | 4.0 | 0.00 | 0.00 | 0.00 | 77 | 1017.0 |
| 20260503060106 | 55 | 231 | 1.0 | 3.0 | 0.00 | 0.00 | 0.00 | 73 | 1016.6 |
| 20260503055036 | 57 | 208 | 0.0 | 3.0 | 0.00 | 0.00 | 0.00 | 70 | 1016.7 |
| 20260503054553 | 57 | 227 | 0.0 | 6.0 | 0.00 | 0.00 | 0.00 | 69 | 1016.7 |
| 20260503054023 | 57 | 187 | 0.0 | 6.0 | 0.00 | 0.00 | 0.00 | 70 | 1016.6 |
| 20260503053532 | 56 | 184 | 3.0 | 5.0 | 0.00 | 0.00 | 0.00 | 70 | 1016.6 |
| 20260503053037 | 56 | 177 | 2.0 | 4.0 | 0.00 | 0.00 | 0.00 | 72 | 1016.5 |
| 20260503052539 | 57 | 248 | 2.0 | 4.0 | 0.00 | 0.00 | 0.00 | 71 | 1016.5 |
| 20260503052027 | 58 | 175 | 1.0 | 3.0 | 0.00 | 0.00 | 0.00 | 68 | 1016.5 |
| 20260503051521 | 58 | 175 | 0.0 | 4.0 | 0.00 | 0.00 | 0.00 | 67 | 1016.5 |
| 20260503051034 | 58 | 305 | 1.0 | 6.0 | 0.00 | 0.00 | 0.00 | 68 | 1016.5 |
| 20260503050525 | 58 | 165 | 2.0 | 6.0 | 0.00 | 0.00 | 0.00 | 66 | 1016.5 |
| 20260503050020 | 58 | 178 | 1.0 | 3.0 | 0.00 | 0.00 | 0.00 | 67 | 1016.6 |
| 20260503045531 | 59 | 164 | 0.0 | 4.0 | 0.00 | 0.00 | 0.00 | 67 | 1016.7 |
| 20260503045020 | 59 | 249 | 1.0 | 4.0 | 0.00 | 0.00 | 0.00 | 67 | 1016.6 |
| 20260503044536 | 58 | 219 | 2.0 | 4.0 | 0.00 | 0.00 | 0.00 | 65 | 1016.6 |
| 20260503044026 | 58 | 235 | 2.0 | 3.0 | 0.00 | 0.00 | 0.00 | 67 | 1016.5 |
| 20260503043536 | 59 | 249 | 2.0 | 3.0 | 0.00 | 0.00 | 0.00 | 63 | 1016.5 |
| 20260503043030 | 59 | 219 | 2.0 | 4.0 | 0.00 | 0.00 | 0.00 | 63 | 1016.5 |
| 20260503042518 | 60 | 245 | 2.0 | 4.0 | 0.00 | 0.00 | 0.00 | 62 | 1016.3 |
| 20260503042029 | 60 | 242 | 3.0 | 4.0 | 0.00 | 0.00 | 0.00 | 62 | 1016.3 |
| 20260503041523 | 62 | 207 | 1.0 | 2.0 | 0.00 | 0.00 | 0.00 | 57 | 1016.2 |
| 20260503041036 | 61 | 240 | 0.0 | 4.0 | 0.00 | 0.00 | 0.00 | 58 | 1016.4 |
| 20260503040521 | 60 | 240 | 2.0 | 5.0 | 0.00 | 0.00 | 0.00 | 61 | 1016.3 |
| 20260503040039 | 60 | 262 | 2.0 | 5.0 | 0.00 | 0.00 | 0.00 | 60 | 1016.2 |
| 20260503035528 | 61 | 249 | 2.0 | 5.0 | 0.00 | 0.00 | 0.00 | 61 | 1016.1 |
| 20260503035018 | 62 | 250 | 3.0 | 5.0 | 0.00 | 0.00 | 0.00 | 61 | 1016.2 |
| 20260503034536 | 62 | 287 | 0.0 | 3.0 | 0.00 | 0.00 | 0.00 | 58 | 1016.2 |
| 20260503034025 | 63 | 204 | 0.0 | 4.0 | 0.00 | 0.00 | 0.00 | 57 | 1016.0 |
| 20260503033537 | 63 | 205 | 2.0 | 5.0 | 0.00 | 0.00 | 0.00 | 57 | 1015.9 |
| 20260503033033 | 63 | 211 | 0.0 | 7.0 | 0.00 | 0.00 | 0.00 | 57 | 1015.9 |
| 20260503032518 | 62 | 248 | 3.0 | 9.0 | 0.00 | 0.00 | 0.00 | 57 | 1015.8 |
| 20260503032029 | 63 | 202 | 3.0 | 7.0 | 0.00 | 0.00 | 0.00 | 60 | 1015.7 |
| 20260503031525 | 64 | 211 | 1.0 | 5.0 | 0.00 | 0.00 | 0.00 | 51 | 1015.7 |
| 20260503031034 | 65 | 269 | 3.0 | 5.0 | 0.00 | 0.00 | 0.00 | 52 | 1015.7 |
| 20260503030524 | 65 | 238 | 3.0 | 4.0 | 0.00 | 0.00 | 0.00 | 52 | 1015.6 |
| 20260503030024 | 65 | 263 | 3.0 | 4.0 | 0.00 | 0.00 | 0.00 | 52 | 1015.5 |
| 20260503025527 | 66 | 256 | 2.0 | 3.0 | 0.00 | 0.00 | 0.00 | 52 | 1015.4 |
| 20260503025021 | 67 | 262 | 2.0 | 4.0 | 0.00 | 0.00 | 0.00 | 47 | 1015.2 |
| 20260503024534 | 68 | 261 | 2.0 | 4.0 | 0.00 | 0.00 | 0.00 | 46 | 1015.3 |
| 20260503024026 | 70 | 260 | 2.0 | 4.0 | 0.00 | 0.00 | 0.00 | 40 | 1015.3 |
| 20260503023537 | 71 | 259 | 2.0 | 4.0 | 0.00 | 0.00 | 0.00 | 36 | 1015.3 |
| 20260503023032 | 73 | 286 | 0.0 | 3.0 | 0.00 | 0.00 | 0.00 | 34 | 1015.3 |
| 20260503022523 | 74 | 297 | 2.0 | 4.0 | 0.00 | 0.00 | 0.00 | 26 | 1015.2 |
| 20260503022031 | 74 | 315 | 2.0 | 4.0 | 0.00 | 0.00 | 0.00 | 26 | 1015.1 |
| 20260503021527 | 74 | 303 | 2.0 | 3.0 | 0.00 | 0.00 | 0.00 | 27 | 1015.1 |
| 20260503021036 | 73 | 295 | 0.0 | 0.0 | 0.00 | 0.00 | 0.00 | 31 | 1015.1 |
| 20260503020524 | 73 | 257 | 0.0 | 3.0 | 0.00 | 0.00 | 0.00 | 30 | 1015.2 |
| 20260503020019 | 74 | 255 | 1.0 | 3.0 | 0.00 | 0.00 | 0.00 | 29 | 1015.2 |
| 20260503015530 | 75 | 259 | 1.0 | 2.0 | 0.00 | 0.00 | 0.00 | 29 | 1015.3 |
| 20260503015023 | 76 | 344 | 1.0 | 4.0 | 0.00 | 0.00 | 0.00 | 26 | 1015.4 |
| 20260503014534 | 77 | 348 | 1.0 | 6.0 | 0.00 | 0.00 | 0.00 | 24 | 1015.3 |
| 20260503014026 | 77 | 34 | 2.0 | 6.0 | 0.00 | 0.00 | 0.00 | 24 | 1015.3 |
| 20260503013518 | 77 | 360 | 2.0 | 4.0 | 0.00 | 0.00 | 0.00 | 24 | 1015.4 |
| 20260503013035 | 77 | 15 | 2.0 | 4.0 | 0.00 | 0.00 | 0.00 | 24 | 1015.5 |
| 20260503012522 | 77 | 31 | 2.0 | 5.0 | 0.00 | 0.00 | 0.00 | 24 | 1015.5 |
| 20260503012032 | 77 | 19 | 3.0 | 5.0 | 0.00 | 0.00 | 0.00 | 23 | 1015.4 |
| 20260503011528 | 77 | 321 | 2.0 | 5.0 | 0.00 | 0.00 | 0.00 | 23 | 1015.4 |
| 20260503011037 | 77 | 322 | 3.0 | 5.0 | 0.00 | 0.00 | 0.00 | 23 | 1015.5 |
| 20260503010528 | 77 | 311 | 2.0 | 4.0 | 0.00 | 0.00 | 0.00 | 23 | 1015.4 |
| 20260503010028 | 77 | 300 | 2.0 | 5.0 | 0.00 | 0.00 | 0.00 | 23 | 1015.5 |
| 20260503005535 | 77 | 324 | 3.0 | 5.0 | 0.00 | 0.00 | 0.00 | 23 | 1015.6 |
| 20260503005024 | 77 | 321 | 3.0 | 6.0 | 0.00 | 0.00 | 0.00 | 24 | 1015.6 |
| 20260503004519 | 77 | 309 | 3.0 | 6.0 | 0.00 | 0.00 | 0.00 | 23 | 1015.6 |
| 20260503004032 | 77 | 288 | 3.0 | 8.0 | 0.00 | 0.00 | 0.00 | 23 | 1015.7 |
| 20260503003538 | 77 | 335 | 4.0 | 10.0 | 0.00 | 0.00 | 0.00 | 24 | 1015.7 |
| 20260503003035 | 77 | 342 | 6.0 | 10.0 | 0.00 | 0.00 | 0.00 | 23 | 1015.6 |
| 20260503002525 | 77 | 26 | 4.0 | 6.0 | 0.00 | 0.00 | 0.00 | 23 | 1015.5 |
| 20260503002033 | 78 | 329 | 3.0 | 5.0 | 0.00 | 0.00 | 0.00 | 24 | 1015.5 |
| 20260503001531 | 78 | 327 | 2.0 | 5.0 | 0.00 | 0.00 | 0.00 | 23 | 1015.6 |
| 20260503001019 | 78 | 327 | 2.0 | 8.0 | 0.00 | 0.00 | 0.00 | 23 | 1015.6 |
| 20260503000529 | 78 | 78 | 3.0 | 8.0 | 0.00 | 0.00 | 0.00 | 23 | 1015.6 |
| 20260503000023 | 78 | 74 | 0.0 | 5.0 | 0.00 | 0.00 | 0.00 | 23 | 1015.7 |
| 20260502235534 | 78 | 325 | 3.0 | 11.0 | 0.00 | 0.00 | 0.00 | 23 | 1015.7 |
| 20260502235022 | 78 | 334 | 5.0 | 11.0 | 0.00 | 0.00 | 0.00 | 22 | 1015.7 |
| 20260502234548 | 78 | 26 | 3.0 | 11.0 | 0.00 | 0.00 | 0.00 | 23 | 1015.7 |
| 20260502234031 | 78 | 344 | 6.0 | 11.0 | 0.00 | 0.00 | 0.00 | 22 | 1015.8 |
| 20260502233536 | 78 | 306 | 2.0 | 10.0 | 0.00 | 0.00 | 0.00 | 23 | 1015.8 |
| 20260502233031 | 78 | 343 | 6.0 | 12.0 | 0.00 | 0.00 | 0.00 | 24 | 1015.9 |
| 20260502232522 | 78 | 46 | 7.0 | 12.0 | 0.00 | 0.00 | 0.00 | 23 | 1016.0 |
| 20260502232030 | 78 | 33 | 3.0 | 10.0 | 0.00 | 0.00 | 0.00 | 24 | 1016.1 |
| 20260502231527 | 78 | 74 | 4.0 | 10.0 | 0.00 | 0.00 | 0.00 | 23 | 1016.3 |
| 20260502231020 | 77 | 11 | 5.0 | 12.0 | 0.00 | 0.00 | 0.00 | 24 | 1016.4 |
| 20260502230529 | 78 | 360 | 6.0 | 14.0 | 0.00 | 0.00 | 0.00 | 23 | 1016.4 |
| 20260502230027 | 78 | 360 | 3.0 | 9.0 | 0.00 | 0.00 | 0.00 | 23 | 1016.4 |
| 20260502225535 | 78 | 309 | 6.0 | 10.0 | 0.00 | 0.00 | 0.00 | 23 | 1016.5 |
| 20260502225025 | 78 | 320 | 5.0 | 10.0 | 0.00 | 0.00 | 0.00 | 23 | 1016.4 |
| 20260502224522 | 78 | 319 | 1.0 | 9.0 | 0.00 | 0.00 | 0.00 | 25 | 1016.6 |
| 20260502224030 | 78 | 306 | 5.0 | 11.0 | 0.00 | 0.00 | 0.00 | 24 | 1016.7 |
| 20260502223521 | 78 | 47 | 7.0 | 11.0 | 0.00 | 0.00 | 0.00 | 23 | 1016.8 |
| 20260502223038 | 78 | 346 | 2.0 | 5.0 | 0.00 | 0.00 | 0.00 | 24 | 1016.9 |
| 20260502222526 | 78 | 288 | 1.0 | 10.0 | 0.00 | 0.00 | 0.00 | 25 | 1017.0 |